Presure
182 200 203 142 169 168 178 181 162 162 205 185 196 180 192 216 225 210 219 164 206 165 220 208 227 176 189 161 189 169 177 183 184 174 172 203 170 150 188 96 175 154 178
192 200 187 192 178 184 179 188 199 206 191 194 180 178 194 237 190 196 235 207 192 199 185 237 215 236 195 182 180 192 173 184 177 179 171 206 175 168 127 180 181 167 170
126 132 146 171 142 126 161 186 207 193 183 155 164 167 178 181 180 190 192 182 197 191 176 211 202 262 203 183 190 138 185 183 184 185 191 164 118 174 183 177 176 161 182
166 186 127 137 208 187 175 179 185 128 204 167 183 182 185 183 169 195 203 181 186 189 203 194 211 214 220 196 190 183 189 182 176 197 180 182 184 167 165 177 178 164 173
174 178 168 167 168 145 123 153 161 160 172 122 148 179 190 182 162 164 144 170 172 191 200 205 192 211 234 207 191 182 177 183 168 184 183 192 181 166 160 172 164 160 168
181 172 171 171 174 170 164 152 150 150 180 164 163 172 161 176 162 191 195 194 173 187 187 205 193 207 188 268 194 185 176 190 171 188 181 186 163 170 155 169 158 178 162
175 185 175 192 182 219 153 178 194 161 179 143 165 174 170 182 186 193 189 175 202 184 187 201 212 212 230 248 263 197 186 182 189 177 184 173 194 183 185 156 182 168 180
211 215 215 208 213 213 214 174 197 108 179 150 170 167 171 180 177 174 185 181 178 185 199 201 209 185 189 231 269 205 191 188 183 179 179 179 181 171 187 172 183 171 180
214 213 218 211 220 213 230 213 216 153 199 216 219 188 189 188 181 168 187 162 159 191 192 203 214 205 203 112 251 194 173 193 182 121 167 187 179 177 171 196 186 177 144
225 226 198 225 225 191 206 195 194 207 222 223 217 217 169 190 194 181 134 190 170 164 203 202 177 179 179 165 208 316 223 183 185 184 174 177 192 178 193 173 184 167 165
226 206 227 202 181 205 206 196 230 220 213 198 165 162 186 194 191 165 177 166 139 148 171 176 193 185 201 169 181 212 281 213 183 176 192 172 180 186 189 185 179 170 185
214 216 207 218 223 203 216 211 215 224 224 236 179 193 212 193 190 194 207 208 208 199 211 175 152 230 221 174 200 186 205 238 207 181 179 184 178 179 182 173 187 169 176
205 206 210 221 229 220 225 216 222 230 211 232 218 185 193 221 234 225 222 210 202 221 203 205 180 219 176 171 224 204 184 208 227 229 183 184 193 183 172 182 187 189 183
232 228 221 224 216 237 198 218 222 218 213 215 217 203 259 264 234 265 222 208 214 142 149 223 215 191 220 187 182 182 197 258 254 295 213 190 175 187 176 183 195 177 183
217 229 215 205 228 228 223 223 219 228 222 206 222 227 250 226 279 255 264 213 228 199 214 215 199 217 209 195 186 204 199 230 243 295 231 205 197 184 184 183 182 190 174
183 216 190 233 167 249 216 225 220 241 202 173 216 263 295 292 237 284 319 293 208 264 217 207 194 214 204 208 218 194 238 242 308 281 229 215 193 200 183 188 177 191 189
277 193 238 256 228 239 209 184 255 251 190 242 280 281 320 300 317 298 298 275 263 258 234 217 208 225 211 215 192 257 206 318 284 259 243 203 205 199 196 186 192 177 193
250 234 237 233 234 238 255 234 206 278 275 291 340 283 316 291 267 263 259 255 241 225 227 225 219 222 239 217 250 255 199 266 253 173 232 209 196 193 186 197 204 179 187
194 240 249 209 253 246 242 245 267 260 274 327 280 276 267 264 251 242 247 242 234 239 236 215 183 251 288 238 235 223 217 244 239 233 210 205 203 207 200 192 196 206 185
223 246 243 238 253 263 261 208 263 273 302 280 263 264 252 244 243 229 219 201 203 214 226 220 272 243 206 227 256 248 237 204 214 224 221 200 205 193 205 212 192 184 203
250 238 238 245 240 241 251 238 257 307 304 253 252 256 243 231 227 224 215 221 215 251 276 211 252 197 198 228 268 238 204 204 220 211 212 222 199 246 201 198 198 200 181
242 239 257 243 250 243 263 263 307 322 259 243 237 224 227 223 262 235 236 248 250 269 242 249 209 216 201 285 245 203 168 221 211 197 209 219 216 216 173 175 200 223 212
254 253 249 253 241 262 250 259 276 267 247 236 238 237 232 228 203 215 210 222 216 229 234 244 175 209 199 270 228 205 208 220 203 196 195 180 189 196 191 195 198 193 225
263 244 245 249 252 277 279 272 310 250 239 231 230 230 210 210 210 200 233 223 214 221 205 213 225 182 210 245 186 178 207 182 207 190 188 186 182 184 188 189 190 174 177
281 284 281 279 278 264 265 288 262 243 235 227 223 233 225 196 239 207 221 210 235 215 216 211 218 227 167 210 169 179 173 203 200 207 182 190 195 189 212 194 188 194 194
262 263 264 259 262 254 253 279 248 230 233 222 217 237 221 209 237 224 214 186 221 227 216 228 234 207 223 218 198 218 225 195 214 181 216 181 204 196 195 202 206 213 204
Wind_Speed
62 61 58 56 57 46 56 50 54 52 51 50 48 44 44 46 43 39 40 32 32 43 31 28 25 29 30 38 41 44 48 45 45 45 40 37 34 36 31 36 31 30 24
62 63 53 54 45 45 44 49 47 44 49 48 45 43 46 46 36 38 40 30 35 34 36 29 27 33 37 38 41 45 49 48 51 46 42 38 31 36 33 33 29 29 29
54 51 53 53 47 48 48 50 50 51 46 49 45 46 46 43 45 43 39 39 34 36 42 36 33 33 39 38 47 40 49 50 50 51 45 41 28 40 40 32 29 35 27
61 57 48 54 50 39 43 47 48 54 61 51 43 46 50 49 49 43 32 45 38 38 38 32 38 30 34 45 48 55 53 53 56 54 41 43 36 35 36 34 35 36 29
62 69 56 57 51 56 59 47 49 56 54 61 55 45 51 50 54 54 45 47 51 44 42 38 32 41 37 47 49 54 50 56 51 48 48 38 36 39 41 38 39 36 35
73 62 59 64 51 49 45 68 61 66 52 50 56 45 49 53 57 47 45 50 49 51 44 47 35 44 38 39 53 54 53 60 52 52 53 47 48 40 42 42 36 42 41
67 83 63 84 61 75 67 67 69 69 60 63 68 55 57 59 59 46 45 56 50 52 60 57 56 50 48 34 43 59 61 59 57 52 58 59 54 56 56 40 51 43 43
97 93 87 92 86 84 75 66 67 38 67 63 68 69 71 67 56 59 56 53 56 54 69 69 60 57 28 42 39 60 63 64 57 60 65 64 66 57 66 49 57 40 43
99 92 86 84 81 77 72 74 77 62 59 70 70 76 75 74 66 65 61 67 51 64 65 67 69 38 49 36 42 47 53 67 62 39 58 71 67 60 50 64 54 52 40
90 88 67 83 81 56 66 69 64 66 72 67 63 67 75 74 70 69 51 70 52 55 73 62 38 39 38 43 35 41 64 60 63 63 64 70 74 66 69 56 61 46 42
85 73 80 67 60 74 70 57 73 73 68 56 71 74 73 71 72 73 71 64 49 51 47 51 44 50 54 46 39 28 33 68 67 64 71 65 75 72 71 73 65 51 72
84 79 67 73 78 77 78 69 71 71 75 73 71 67 69 75 75 76 83 88 91 75 89 46 52 87 76 53 52 43 33 39 71 71 69 68 71 70 71 66 78 53 64
78 69 71 80 83 82 79 66 73 75 67 75 66 56 72 72 73 79 86 90 85 98 77 70 50 75 57 58 71 59 52 49 49 77 75 75 74 71 68 74 78 78 74
92 90 82 81 80 87 64 74 72 71 66 67 72 72 72 72 78 76 84 83 90 54 52 94 83 67 77 55 58 56 62 69 66 60 84 80 62 69 68 72 79 66 75
85 90 79 70 86 83 79 78 69 74 72 73 73 74 77 70 74 78 72 79 92 73 97 95 64 89 69 54 58 62 60 67 61 57 82 81 81 68 71 72 73 79 67
63 77 69 91 60 89 76 80 75 82 75 65 76 77 75 79 74 70 64 71 75 76 96 87 63 80 56 72 70 64 70 63 50 53 75 79 72 79 70 76 71 76 79
66 58 77 85 83 81 69 64 77 79 65 75 74 71 61 63 49 48 45 57 64 64 84 96 88 82 69 87 64 59 55 49 48 56 68 68 74 70 74 75 77 70 80
71 77 80 85 85 79 81 81 63 70 65 59 49 57 43 35 35 39 44 57 67 70 79 91 93 86 75 84 50 53 51 45 54 49 66 70 61 66 71 75 78 75 85
69 70 71 65 70 75 79 78 66 66 53 53 50 39 39 39 35 44 46 55 53 62 65 77 56 60 54 44 46 51 51 49 53 57 61 58 66 66 75 76 75 77 81
68 66 67 72 64 66 69 61 67 61 55 45 46 39 41 37 43 50 53 61 60 54 58 69 49 46 48 49 46 45 52 52 52 59 61 57 65 67 66 69 72 69 75
69 69 70 69 72 71 69 68 63 54 42 46 42 45 44 44 48 54 54 59 58 54 41 56 47 47 57 49 44 50 51 46 56 52 54 55 60 65 65 68 70 72 72
70 72 68 72 68 65 58 61 56 48 46 46 45 46 45 51 16 32 36 35 33 39 48 50 39 36 44 46 49 48 53 55 54 51 57 52 54 57 57 56 67 82 81
66 66 67 61 57 62 61 56 43 47 50 51 50 47 49 46 46 40 54 49 38 37 42 44 60 41 48 43 50 52 48 57 53 49 50 51 51 55 56 58 61 62 69
64 64 64 64 65 53 46 46 44 52 53 55 57 56 47 45 47 54 51 48 42 49 46 42 41 57 48 46 56 56 55 45 62 56 51 53 57 58 62 65 67 59 59
40 40 40 40 41 43 45 42 53 56 60 62 60 54 51 53 47 52 53 48 48 51 49 49 51 50 54 49 58 54 57 61 57 63 56 58 62 61 68 70 68 73 75
44 44 44 45 46 51 47 46 59 64 66 66 60 55 55 56 43 49 59 52 47 47 55 54 53 40 49 52 42 54 56 48 62 58 67 58 56 63 63 62 72 84 83
Wind_Direction
279 280 282 267 276 285 281 285 280 277 297 290 298 291 302 315 316 310 308 296 298 285 300 290 278 258 247 269 239 263 260 255 257 267 270 238 272 273 258 283 271 274 284
277 279 282 284 277 284 283 286 289 294 289 295 289 290 293 308 301 301 304 289 287 298 287 300 275 256 244 249 255 241 262 252 262 260 267 252 264 266 277 269 267 274 281
262 264 269 277 264 265 273 292 293 288 275 275 270 278 292 291 288 295 294 283 299 287 277 304 281 282 233 246 242 256 249 250 255 256 252 258 278 254 249 263 264 272 271
263 263 258 265 282 276 276 270 283 263 290 274 288 293 295 290 281 298 291 282 283 286 297 295 302 277 260 234 238 245 246 249 260 250 258 245 244 251 254 255 258 269 266
264 267 267 270 274 267 257 267 275 276 280 273 277 278 285 284 278 279 279 281 282 281 286 296 278 294 272 235 233 246 252 246 265 258 253 251 243 256 270 254 268 268 263
261 263 266 263 259 267 250 274 276 269 282 267 276 271 274 266 274 279 282 281 283 281 291 295 271 304 254 271 234 239 252 243 258 246 248 241 266 253 275 267 274 254 261
263 266 264 267 264 261 257 259 260 268 258 273 276 270 268 264 268 260 261 273 288 277 281 290 293 285 289 270 250 230 243 249 241 248 242 257 241 256 244 275 250 259 252
266 266 263 265 264 267 263 247 256 264 258 264 266 273 270 267 267 266 255 262 269 271 280 278 282 284 257 265 264 229 239 243 247 246 249 248 251 270 251 269 252 267 259
263 264 264 265 264 265 259 256 262 259 257 254 251 255 256 261 264 269 260 281 267 271 268 269 276 266 278 267 268 247 246 240 247 258 263 240 257 261 271 246 252 267 276
260 260 256 263 264 258 267 248 249 265 265 264 258 252 260 258 256 263 268 260 280 274 262 267 257 255 248 253 270 263 232 247 245 248 252 255 241 262 251 274 259 270 275
257 265 260 263 246 267 269 264 260 261 265 248 261 267 263 253 256 264 263 272 278 276 266 265 264 263 261 252 257 269 273 235 246 253 243 255 254 254 251 257 265 272 268
261 264 263 261 262 256 264 264 265 265 265 263 246 262 257 258 259 259 257 254 256 266 260 250 264 263 265 251 258 255 257 257 241 249 252 247 252 255 256 266 257 270 267
252 265 260 262 262 264 266 264 268 267 262 269 265 256 259 254 250 249 247 253 263 253 262 269 250 265 247 253 272 261 245 261 259 241 247 249 244 250 260 256 257 259 262
256 260 263 262 261 262 254 268 269 266 268 268 270 258 271 264 252 256 252 250 258 271 263 257 269 263 267 243 251 251 258 268 266 248 235 243 252 247 254 254 252 261 261
256 260 261 253 260 262 265 266 267 269 267 267 271 269 271 262 263 250 251 255 249 266 260 263 268 268 261 248 249 270 263 275 272 244 232 234 241 249 250 253 255 256 266
254 257 255 259 263 262 268 270 260 268 264 267 266 271 270 269 261 261 259 246 253 249 252 261 255 265 250 270 268 267 270 268 252 236 231 233 239 241 248 253 254 254 254
250 259 253 257 262 262 260 262 264 266 268 269 268 265 269 267 258 263 262 239 242 245 247 252 259 262 263 269 245 259 256 251 234 231 231 235 237 240 242 248 249 256 252
252 255 256 259 261 261 261 268 261 266 269 272 268 263 264 251 252 250 243 240 241 243 248 252 254 260 261 265 247 251 253 227 231 253 230 232 238 240 245 245 244 250 249
256 253 255 258 257 259 262 265 265 265 272 273 252 253 252 250 249 253 245 241 245 249 246 247 245 259 248 245 244 251 255 228 231 229 232 235 237 241 243 247 248 248 252
256 251 252 255 258 260 262 262 262 267 277 244 249 239 247 248 248 245 238 241 245 246 245 245 240 248 250 251 250 232 227 237 237 232 232 240 239 243 243 239 249 255 254
251 252 252 256 256 259 261 263 264 274 250 244 245 238 240 241 244 246 243 247 251 249 236 245 237 241 245 248 226 228 238 250 233 244 242 242 244 229 247 251 253 249 261
252 253 255 256 257 261 268 264 271 268 228 233 236 240 234 237 225 264 262 253 240 229 232 228 233 239 251 221 224 238 249 233 237 246 244 247 247 247 250 251 252 243 247
252 251 255 259 260 269 262 259 256 217 225 230 225 214 223 237 254 225 251 254 245 245 244 243 244 237 242 224 227 237 235 231 237 249 250 247 256 260 257 260 257 255 255
257 257 259 262 263 258 249 251 252 217 222 225 228 223 245 241 229 250 234 250 249 244 243 246 251 246 242 234 236 243 237 243 238 244 247 250 253 253 256 257 259 256 255
261 260 256 252 249 243 245 251 214 216 218 226 234 233 225 242 230 236 239 244 243 242 242 246 255 248 259 228 246 239 245 238 242 241 247 252 253 254 256 257 259 261 262
257 256 254 239 245 239 235 228 211 218 218 230 234 221 234 241 223 233 230 246 234 239 240 249 245 233 237 234 231 235 239 239 236 247 243 252 247 250 255 257 261 261 262